Date,TemperatureHighF,TemperatureAvgF,TemperatureLowF,DewpointHighF,DewpointAvgF,DewpointLowF,HumidityHigh,HumidityAvg,HumidityLow,PressureMaxIn,PressureMinIn,WindSpeedMaxMPH,WindSpeedAvgMPH,GustSpeedMaxMPH,PrecipitationSumIn
2013-1-1,14.0,6.1,-3.0,7.0,0.7,-7.0,85,78,62,30.68,30.52,7,1,0,0.00
2013-1-2,30.0,13.1,2.0,13.0,5.2,-4.0,83,71,48,30.66,30.56,5,2,0,0.00
2013-1-3,20.0,6.6,-3.0,5.0,-1.3,-8.0,85,70,52,30.69,30.61,6,1,0,0.00
2013-1-4,19.0,3.6,-6.0,5.0,-2.4,-10.0,85,77,52,30.68,30.56,2,0,0,0.00
2013-1-5,15.0,2.9,-7.0,4.0,-2.8,-12.0,86,77,59,30.80,30.60,4,1,0,0.00
2013-1-6,18.0,5.8,-3.0,8.0,0.7,-7.0,86,80,61,30.74,30.38,4,1,0,0.00
2013-1-7,28.0,8.8,-2.0,18.0,3.6,-6.0,87,79,61,30.43,30.14,10,2,0,0.00
2013-1-8,41.0,34.6,28.0,24.0,19.7,15.0,66,55,44,30.25,30.09,32,12,0,0.00
2013-1-9,35.0,26.6,17.0,23.0,18.1,14.0,90,71,57,30.28,30.00,8,3,0,0.00
2013-1-10,42.0,26.4,13.0,25.0,18.0,10.0,91,72,46,30.00,29.46,18,5,0,0.00
2013-1-11,31.0,10.0,0.0,21.0,5.3,-4.0,86,81,67,30.26,29.44,26,16,0,0.00
2013-1-12,9.0,0.7,-4.0,3.0,-3.7,-8.0,84,81,75,30.50,30.25,2,0,0,0.00
2013-1-13,7.0,-0.4,-9.0,1.0,-4.8,-13.0,83,81,77,30.59,30.49,2,0,0,0.00
2013-1-14,5.0,-6.2,-12.0,-3.0,-11.0,-17.0,82,79,70,30.70,30.58,6,1,0,0.00
2013-1-15,15.0,2.1,-7.0,2.0,-4.4,-12.0,82,74,56,30.75,30.66,4,1,0,0.00
2013-1-16,23.0,9.0,-1.0,12.0,2.3,-6.0,86,74,57,30.79,30.69,5,1,0,0.00
2013-1-17,21.0,9.8,1.0,12.0,4.8,-3.0,86,79,63,30.85,30.60,4,1,0,0.00
2013-1-18,42.0,17.8,-1.0,16.0,7.3,-5.0,87,67,30,30.61,30.30,31,6,0,0.00
2013-1-19,41.0,30.6,24.0,21.0,13.1,7.0,66,49,30,30.34,30.24,27,6,0,0.00
2013-1-20,32.0,24.3,9.0,19.0,12.5,4.0,83,61,41,30.47,30.26,14,3,0,0.00
2013-1-21,35.0,19.7,6.0,20.0,11.7,3.0,90,73,37,30.44,30.28,5,2,0,0.00
2013-1-22,36.0,24.1,6.0,19.0,11.5,-1.0,81,59,41,30.34,30.26,7,2,0,0.00
2013-1-23,36.0,24.3,14.0,21.0,14.5,7.0,76,66,50,30.36,30.23,6,2,0,0.00
2013-1-24,45.0,31.3,15.0,28.0,18.6,9.0,80,60,48,30.25,30.12,20,4,0,0.00
2013-1-25,43.0,33.4,23.0,26.0,21.3,16.0,76,61,49,30.24,30.07,17,4,0,0.00
2013-1-26,42.0,30.9,15.0,28.0,21.8,11.0,85,69,53,30.08,29.82,6,2,0,0.00
2013-1-27,45.0,31.7,24.0,31.0,25.3,19.0,89,78,54,29.94,29.61,20,5,0,0.00
2013-1-28,28.0,23.9,19.0,20.0,16.9,3.0,87,74,49,30.10,29.94,22,7,0,0.00
2013-1-29,25.0,17.4,11.0,14.0,6.9,2.0,80,63,48,30.45,30.06,19,5,0,0.00
2013-1-30,38.0,20.6,5.0,18.0,10.7,1.0,86,67,42,30.39,30.24,19,3,0,0.00
2013-1-31,45.0,38.5,26.0,20.0,17.4,16.0,66,43,32,30.37,30.27,25,16,0,0.00
2013-2-1,44.0,33.9,25.0,23.0,16.8,13.0,68,50,31,30.49,30.22,27,9,0,0.00
2013-2-2,41.0,30.2,16.0,21.0,15.6,10.0,82,56,37,30.59,30.48,17,3,0,0.00
2013-2-3,37.0,25.9,16.0,21.0,16.7,11.0,84,68,49,30.53,30.28,10,1,0,0.00
2013-2-4,49.0,37.7,19.0,20.0,16.7,12.0,78,44,28,30.32,30.04,30,13,0,0.00
2013-2-5,47.0,34.4,22.0,26.0,20.9,16.0,79,59,41,30.14,30.01,8,2,0,0.00
2013-2-6,47.0,34.9,27.0,23.0,16.7,9.0,70,49,21,30.32,30.03,17,6,0,0.00
2013-2-7,41.0,26.5,18.0,15.0,11.5,8.0,72,53,33,30.39,30.23,11,2,0,0.00
2013-2-8,37.0,24.2,12.0,24.0,14.2,4.0,92,67,36,30.26,30.12,8,2,0,0.00
2013-2-9,31.0,24.7,19.0,26.0,22.1,17.0,93,90,82,30.13,29.99,12,3,0,0.00
2013-2-10,28.0,20.1,16.0,21.0,15.6,11.0,92,82,70,30.45,30.07,18,4,0,0.00
2013-2-11,21.0,10.6,2.0,12.0,5.4,-1.0,89,80,58,30.55,30.45,3,0,0,0.00
2013-2-12,25.0,9.2,-3.0,12.0,3.2,-7.0,88,77,54,30.69,30.55,2,0,0,0.00
2013-2-13,41.0,23.7,2.0,22.0,13.3,-1.0,89,67,44,30.58,30.35,26,8,0,0.00
2013-2-14,29.0,22.8,12.0,21.0,15.6,8.0,88,74,57,30.62,30.37,16,4,0,0.00
2013-2-15,34.0,20.0,8.0,21.0,13.5,4.0,88,77,54,30.82,30.62,11,3,0,0.00
2013-2-16,40.0,26.7,12.0,25.0,17.7,5.0,82,69,53,30.65,30.18,6,2,0,0.00
2013-2-17,41.0,25.5,12.0,25.0,18.3,9.0,91,76,34,30.25,29.97,20,5,0,0.00
2013-2-18,31.0,21.7,14.0,22.0,13.5,7.0,90,72,42,30.38,30.25,8,3,0,0.00
2013-2-19,36.0,22.2,11.0,17.0,12.5,8.0,87,68,39,30.35,30.05,6,1,0,0.00
2013-2-20,37.0,24.3,16.0,19.0,14.5,10.0,78,67,47,30.08,29.96,10,1,0,0.00
2013-2-21,30.0,22.7,18.0,19.0,16.1,13.0,85,76,61,30.23,30.08,5,1,0,0.00
2013-2-22,34.0,24.4,14.0,16.0,10.5,6.0,86,57,34,30.32,30.08,26,7,0,0.00
2013-2-23,38.0,27.1,20.0,25.0,14.9,7.0,91,61,45,30.15,29.85,18,5,0,0.00
2013-2-24,32.0,24.6,13.0,19.0,14.9,8.0,85,68,43,30.42,30.15,12,5,0,0.00
2013-2-25,31.0,20.0,9.0,18.0,11.8,5.0,87,71,53,30.42,30.21,11,2,0,0.00
2013-2-26,34.0,26.9,22.0,20.0,15.7,10.0,90,64,38,30.53,30.22,13,6,0,0.00
2013-2-27,32.0,23.6,15.0,19.0,11.1,5.0,84,59,44,30.60,30.52,17,3,0,0.00
2013-2-28,40.0,27.2,11.0,17.0,11.8,5.0,79,54,36,30.62,30.54,22,6,0,0.00
2013-3-1,48.0,33.7,16.0,28.0,20.2,10.0,81,58,42,30.65,30.52,11,3,0,0.00
2013-3-2,53.0,40.6,32.0,32.0,26.2,22.0,81,57,35,30.58,30.10,11,4,0,0.00
2013-3-3,55.0,40.2,25.0,32.0,24.1,11.0,82,57,26,30.11,29.73,26,8,0,0.00
2013-3-4,28.0,23.3,17.0,19.0,12.6,9.0,87,64,44,30.61,29.98,16,6,0,0.00
2013-3-5,38.0,23.0,7.0,15.0,8.3,3.0,85,57,27,30.65,30.38,6,2,0,0.00
2013-3-6,52.0,34.8,16.0,29.0,15.0,8.0,71,46,27,30.38,29.98,15,3,0,0.00
2013-3-7,50.0,39.7,29.0,28.0,18.3,9.0,66,44,21,30.15,30.03,17,5,0,0.00
2013-3-8,48.0,38.7,29.0,27.0,24.1,20.0,75,56,41,30.10,29.89,16,5,0,0.00
2013-3-9,41.0,35.6,29.0,24.0,17.5,12.0,64,48,34,30.41,29.96,23,9,0,0.00
2013-3-10,50.0,36.6,19.0,15.0,11.8,7.0,67,39,21,30.49,30.21,23,4,0,0.00
2013-3-11,50.0,39.0,27.0,25.0,18.1,8.0,83,46,22,30.36,30.07,34,14,0,0.00
2013-3-12,49.0,34.5,24.0,24.0,19.2,17.0,83,56,30,30.50,30.35,11,4,0,0.00
2013-3-13,64.0,48.2,33.0,26.0,22.4,20.0,59,38,19,30.39,30.27,25,12,0,0.00
2013-3-14,66.0,52.9,42.0,25.0,20.4,15.0,45,29,15,30.31,30.10,18,5,0,0.00
2013-3-15,68.0,53.6,43.0,22.0,18.0,14.0,37,26,14,30.10,29.88,24,8,0,0.00
2013-3-16,56.0,42.5,30.0,28.0,20.6,8.0,77,46,18,30.01,29.88,15,5,0,0.00
2013-3-17,42.0,35.1,25.0,22.0,6.7,-7.0,62,32,15,30.09,29.65,35,15,0,0.00
2013-3-18,42.0,29.8,18.0,11.0,4.3,-4.0,58,36,14,30.20,30.09,24,7,0,0.00
2013-3-19,45.0,31.0,19.0,18.0,9.8,-7.0,86,48,12,30.49,30.17,21,7,0,0.00
2013-3-20,56.0,33.6,16.0,25.0,17.3,11.0,84,56,26,30.50,29.89,14,3,0,0.00
2013-3-21,43.0,34.7,25.0,30.0,23.6,13.0,84,64,46,30.06,29.72,24,8,0,0.00
2013-3-22,30.0,23.4,19.0,20.0,15.4,6.0,91,73,46,30.33,30.05,13,6,0,0.00
2013-3-23,29.0,20.9,14.0,14.0,9.6,3.0,85,62,35,30.53,30.33,13,5,0,0.00
2013-3-24,29.0,19.6,9.0,15.0,8.0,5.0,89,63,36,30.62,30.52,10,4,0,0.00
2013-3-25,43.0,25.9,9.0,10.0,5.2,1.0,73,45,19,30.66,30.38,6,1,0,0.00
2013-3-26,49.0,34.6,22.0,15.0,9.2,1.0,53,35,23,30.38,30.14,10,2,0,0.00
2013-3-27,56.0,40.1,23.0,27.0,19.5,13.0,72,47,25,30.26,30.13,7,2,0,0.00
2013-3-28,61.0,45.6,29.0,23.0,20.1,17.0,63,39,21,30.26,30.11,12,2,0,0.00
2013-3-29,63.0,48.9,37.0,30.0,23.8,20.0,60,39,24,30.20,30.09,18,5,0,0.00
2013-3-30,53.0,42.5,34.0,35.0,29.8,-99.9,89,65,40,30.32,30.20,12,4,0,0.00
2013-3-31,59.0,44.4,28.0,28.0,22.9,18.0,77,47,22,30.30,30.13,17,5,0,0.00
2013-4-1,56.0,42.5,26.0,26.0,22.8,18.0,77,48,29,30.24,30.12,22,6,0,0.00
2013-4-2,59.0,45.9,30.0,23.0,17.5,14.0,56,34,18,30.24,30.12,8,2,0,0.00
2013-4-3,67.0,47.1,32.0,30.0,21.2,12.0,56,37,19,30.21,30.11,14,2,0,0.00
2013-4-4,67.0,51.3,33.0,30.0,26.0,21.0,70,42,18,30.22,29.93,19,3,0,0.00
2013-4-5,62.0,51.7,40.0,33.0,24.4,13.0,53,35,17,29.94,29.69,29,11,0,0.00
2013-4-6,61.0,46.5,36.0,27.0,22.9,19.0,57,41,21,30.01,29.89,19,7,0,0.00
2013-4-7,59.0,46.4,36.0,26.0,23.6,18.0,58,42,24,29.93,29.67,21,7,0,0.00
2013-4-8,41.0,27.2,15.0,30.0,21.6,12.0,92,80,55,30.35,29.68,24,15,0,0.00
2013-4-9,23.0,16.5,13.0,17.0,12.5,9.0,89,84,75,30.71,30.34,21,13,0,0.00
2013-4-10,32.0,19.0,7.0,22.0,14.0,4.0,90,82,62,30.68,30.30,2,0,0,0.00
2013-4-11,46.0,33.7,23.0,34.0,26.3,18.0,88,75,57,30.30,30.10,9,2,0,0.00
2013-4-12,46.0,37.7,31.0,32.0,28.3,25.0,93,70,47,30.22,29.98,19,6,0,0.00
2013-4-13,55.0,39.3,27.0,32.0,26.0,14.0,91,63,26,29.98,29.50,23,8,0,0.00
2013-4-14,43.0,32.1,25.0,25.0,13.0,0.0,90,51,16,30.03,29.68,28,14,0,0.00
2013-4-15,33.0,26.4,22.0,22.0,17.8,14.0,87,71,46,30.29,29.98,15,8,0,0.00
2013-4-16,27.0,21.7,19.0,23.0,18.2,15.0,98,86,73,30.51,30.27,13,8,0,0.00
2013-4-17,28.0,21.5,16.0,20.0,14.6,11.0,87,75,51,30.60,30.48,15,7,0,0.00
2013-4-18,41.0,28.9,14.0,16.0,13.6,4.0,88,58,23,30.59,30.42,9,2,0,0.00
2013-4-19,55.0,41.8,28.0,27.0,20.2,15.0,69,44,27,30.42,29.98,22,9,0,0.00
2013-4-20,58.0,46.4,35.0,31.0,25.2,18.0,73,47,21,30.07,29.93,25,10,0,0.00
2013-4-21,57.0,46.0,32.0,31.0,23.7,14.0,83,46,19,30.13,29.96,30,7,0,0.00
2013-4-22,32.0,23.8,20.0,24.0,20.0,17.0,90,86,70,30.67,30.01,25,11,0,0.00
2013-4-23,39.0,26.1,14.0,22.0,15.7,10.0,90,68,38,30.68,30.45,7,2,0,0.00
2013-4-24,51.0,38.0,22.0,21.0,15.5,12.0,76,43,22,30.51,30.26,10,3,0,0.00
2013-4-25,62.0,47.3,31.0,20.0,11.3,-2.0,53,27,8,30.26,29.98,15,5,0,0.00
2013-4-26,69.0,53.2,36.0,22.0,16.9,10.0,53,26,11,30.28,30.13,14,4,0,0.00
2013-4-27,75.0,59.3,45.0,26.0,18.6,8.0,35,22,8,30.22,29.95,17,7,0,0.00
2013-4-28,68.0,57.4,47.0,33.0,25.0,19.0,43,30,17,29.96,29.84,12,3,0,0.00
2013-4-29,65.0,51.7,37.0,34.0,27.1,18.0,85,45,19,29.85,29.58,34,11,0,0.00
2013-4-30,46.0,37.0,28.0,31.0,26.9,22.0,93,69,43,30.32,29.71,21,12,0,0.00
2013-5-1,34.0,28.4,24.0,30.0,25.4,22.0,94,89,80,30.93,30.32,12,4,0,0.00
2013-5-2,53.0,36.9,22.0,27.0,19.9,16.0,88,56,25,31.00,30.58,8,2,0,0.00
2013-5-3,60.0,46.8,33.0,32.0,22.8,13.0,73,43,16,30.58,30.18,13,3,0,0.00
2013-5-4,55.0,45.8,41.0,41.0,36.1,32.0,87,69,43,30.30,30.18,17,7,0,0.00
2013-5-5,60.0,48.7,37.0,37.0,31.2,24.0,86,56,27,30.32,30.14,8,3,0,0.00
2013-5-6,70.0,53.0,36.0,35.0,30.7,25.0,80,48,20,30.15,29.94,12,3,0,0.00
2013-5-7,68.0,53.2,39.0,40.0,34.5,31.0,76,51,26,30.01,29.87,18,4,0,0.00
2013-5-8,67.0,56.6,46.0,38.0,32.2,22.0,69,43,18,30.12,30.01,19,6,0,0.00
2013-5-9,71.0,57.7,44.0,38.0,33.7,29.0,68,42,23,30.19,30.07,22,3,0,0.00
2013-5-10,71.0,56.0,39.0,39.0,30.9,-99.9,82,46,15,30.37,30.18,25,6,0,0.00
2013-5-11,72.0,57.7,40.0,40.0,33.6,-99.9,83,45,20,30.37,30.15,12,4,0,0.00
2013-5-12,81.0,66.8,48.0,37.0,31.8,27.0,54,30,14,30.21,29.97,18,4,0,0.00
2013-5-13,85.0,71.8,58.0,41.0,31.5,26.0,40,25,12,30.03,29.80,18,5,0,0.00
2013-5-14,83.0,71.8,57.0,36.0,27.5,15.0,44,21,8,29.83,29.69,24,7,0,0.00
2013-5-15,79.0,62.5,50.0,47.0,35.4,-99.9,68,40,21,29.88,29.71,33,5,0,0.00
2013-5-16,71.0,55.8,49.0,47.0,29.7,-99.9,83,59,31,29.85,29.74,36,2,0,0.00
2013-5-17,76.0,57.4,47.0,51.0,40.7,-99.9,92,64,16,29.85,29.70,37,7,0,0.00
2013-5-18,65.0,54.4,46.0,46.0,42.2,39.0,85,65,39,29.94,29.77,13,6,0,0.00
2013-5-19,50.0,46.0,44.0,45.0,42.4,40.0,92,87,79,30.12,29.93,15,5,0,0.00
2013-5-20,58.0,50.0,43.0,43.0,39.0,35.0,93,68,46,30.20,30.11,24,10,0,0.00
2013-5-21,65.0,54.1,43.0,38.0,35.2,30.0,79,52,30,30.20,29.90,22,2,0,0.00
2013-5-22,74.0,55.2,40.0,44.0,39.1,35.0,89,58,29,29.93,29.71,33,11,0,0.00
2013-5-23,78.0,58.7,44.0,47.0,41.1,31.0,86,58,18,29.88,29.58,28,6,0,0.00
2013-5-24,71.0,60.2,48.0,46.0,23.1,6.0,79,32,8,29.93,29.68,15,4,0,0.00
2013-5-25,78.0,63.4,48.0,36.0,22.6,12.0,44,24,8,29.95,29.75,18,5,0,0.00
2013-5-26,78.0,64.6,49.0,41.0,32.3,14.0,61,34,9,29.88,29.69,14,3,0,0.00
2013-5-27,73.0,62.2,53.0,44.0,31.1,12.0,65,35,10,29.80,29.69,16,5,0,0.00
2013-5-28,66.0,54.1,45.0,47.0,38.8,29.0,74,58,31,29.76,29.63,10,2,0,0.00
2013-5-29,59.0,49.8,43.0,45.0,41.6,38.0,91,74,46,29.78,29.67,20,9,0,0.00
2013-5-30,64.0,53.2,44.0,42.0,32.1,24.0,85,48,23,29.90,29.72,31,14,0,0.00
2013-5-31,64.0,53.4,46.0,38.0,28.3,20.0,71,40,22,30.26,29.87,0,0,0,0.00
2013-6-1,66.0,54.0,43.0,41.0,36.4,32.0,83,55,30,30.33,30.10,0,0,0,0.00
2013-6-2,82.0,62.3,42.0,43.0,32.9,22.0,78,42,11,30.10,29.59,0,0,0,0.00
2013-6-3,70.0,62.8,51.0,39.0,26.3,19.0,50,26,15,29.94,29.56,0,0,0,0.00
2013-6-4,59.0,50.5,39.0,37.0,34.9,33.0,79,56,42,30.31,29.94,0,0,0,0.00
2013-6-5,69.0,54.6,39.0,37.0,32.4,22.0,74,47,23,30.31,30.09,0,0,0,0.00
2013-6-6,79.0,62.4,44.0,41.0,35.8,29.0,71,40,21,30.13,29.99,0,0,0,0.00
2013-6-7,82.0,66.9,50.0,45.0,38.7,33.0,74,40,20,30.05,29.66,0,0,0,0.00
2013-6-8,75.0,66.1,55.0,45.0,39.1,34.0,60,38,24,29.90,29.64,0,0,0,0.00
2013-6-9,91.0,69.9,48.0,45.0,37.1,26.0,71,36,10,29.95,29.71,15,3,0,0.00
2013-6-10,92.0,78.3,62.0,46.0,34.8,24.0,42,22,9,29.72,29.53,24,4,0,0.00
2013-6-11,81.0,68.8,52.0,52.0,41.5,26.0,77,42,13,29.92,29.59,30,8,0,0.00
2013-6-12,86.0,69.0,54.0,47.0,41.3,31.0,67,40,15,29.98,29.79,15,4,0,0.00
2013-6-13,86.0,68.0,50.0,54.0,42.2,18.0,86,49,8,29.87,29.62,32,4,0,0.00
2013-6-14,76.0,61.6,49.0,40.0,24.9,-1.0,65,31,5,30.06,29.72,32,8,0,0.00
2013-6-15,79.0,62.1,43.0,38.0,27.9,19.0,62,31,11,30.11,29.93,6,2,0,0.00
2013-6-16,86.0,66.8,47.0,37.0,27.3,13.0,50,26,7,30.05,29.87,20,4,0,0.00
2013-6-17,84.0,69.4,53.0,47.0,39.0,28.0,61,36,15,30.05,29.87,20,6,0,0.00
2013-6-18,83.0,69.0,53.0,49.0,39.5,29.0,69,39,15,29.94,29.69,24,7,0,0.00
2013-6-19,87.0,68.2,51.0,46.0,31.1,6.0,69,34,5,29.73,29.45,31,9,0,0.00
2013-6-20,76.0,58.5,47.0,24.0,18.3,8.0,32,22,8,29.85,29.67,17,3,0,0.00
2013-6-22,77.0,65.6,54.0,47.0,40.6,18.0,59,41,11,29.97,29.74,16,6,0,0.00
2013-6-23,81.0,62.9,41.0,45.0,33.7,23.0,82,42,13,29.99,29.72,13,2,0,0.00
2013-6-24,85.0,73.9,58.0,41.0,29.8,22.0,43,21,10,29.73,29.49,27,7,0,0.00
2013-6-25,81.0,69.4,57.0,43.0,38.1,33.0,53,34,18,29.87,29.62,18,5,0,0.00
2013-6-26,90.0,72.7,55.0,48.0,41.2,34.0,62,36,16,30.00,29.86,14,3,0,0.00
2013-6-27,96.0,77.7,61.0,47.0,39.3,27.0,47,28,9,30.08,29.96,20,4,0,0.00
2013-6-28,93.0,77.5,60.0,53.0,48.4,43.0,69,39,18,30.09,29.95,22,7,0,0.00
2013-6-29,90.0,75.0,61.0,53.0,47.6,39.0,61,40,19,30.06,29.91,23,4,0,0.00
2013-6-30,89.0,73.7,61.0,53.0,48.1,40.0,65,43,19,30.06,29.96,11,3,0,0.00
2013-7-1,88.0,74.2,57.0,54.0,47.9,41.0,81,44,23,30.12,30.02,11,4,0,0.00
2013-7-2,90.0,75.8,58.0,52.0,42.9,29.0,67,35,13,30.07,29.91,10,3,0,0.00
2013-7-3,89.0,72.5,60.0,57.0,46.3,35.0,71,41,24,29.92,29.77,9,2,0,0.00
2013-7-4,90.0,71.3,59.0,57.0,51.7,43.0,78,54,20,29.85,29.71,18,3,0,0.00
2013-7-5,84.0,68.5,56.0,59.0,53.8,46.0,90,64,27,29.82,29.66,19,4,0,0.00
2013-7-6,84.0,69.1,57.0,55.0,50.3,41.0,84,56,22,29.91,29.77,20,3,0,0.00
2013-7-7,87.0,69.1,54.0,54.0,48.2,37.0,87,54,18,29.96,29.85,25,3,0,0.00
2013-7-8,89.0,69.5,57.0,51.0,45.7,35.0,69,46,15,29.96,29.85,19,3,0,0.00
2013-7-9,92.0,74.8,53.0,48.0,41.4,32.0,71,34,13,30.02,29.92,13,4,0,0.00
2013-7-10,94.0,75.4,59.0,54.0,40.4,-99.9,74,37,9,30.02,29.80,14,4,0,0.00
2013-7-11,94.0,79.0,62.0,50.0,41.8,30.0,56,30,11,29.83,29.59,13,3,0,0.00
2013-7-12,82.0,72.3,62.0,58.0,48.2,36.0,77,46,22,29.85,29.69,17,2,0,0.00
2013-7-13,83.0,72.3,58.0,49.0,41.4,35.0,55,34,18,29.98,29.85,25,4,0,0.00
2013-7-14,87.0,72.7,62.0,53.0,47.6,38.0,66,44,18,30.10,29.93,18,6,0,0.00
2013-7-15,92.0,76.3,60.0,60.0,48.5,32.0,81,45,13,29.97,29.76,12,3,0,0.00
2013-7-16,88.0,75.6,62.0,54.0,48.2,40.0,64,39,23,30.04,29.80,20,8,0,0.00
2013-7-17,90.0,74.4,60.0,57.0,50.9,46.0,76,47,24,30.08,29.92,15,2,0,0.00
2013-7-18,94.0,77.4,64.0,56.0,48.2,31.0,70,42,11,30.03,29.84,15,3,0,0.00
2013-7-19,91.0,77.9,64.0,55.0,46.6,37.0,54,35,18,29.98,29.72,14,2,0,0.00
2013-7-20,93.0,75.7,61.0,45.0,36.4,-99.9,44,26,11,29.87,29.65,13,3,0,0.00
2013-7-21,94.0,77.9,60.0,52.0,39.4,24.0,59,29,8,29.78,29.63,8,3,0,0.00
2013-7-22,95.0,76.4,60.0,46.0,32.8,6.0,51,23,4,29.81,29.69,16,2,0,0.00
2013-7-23,88.0,72.8,62.0,41.0,29.1,-99.9,39,22,10,29.97,29.79,11,4,0,0.00
2013-7-24,89.0,73.5,60.0,53.0,42.3,28.0,55,35,14,30.02,29.84,14,3,0,0.00
2013-7-25,82.0,71.0,59.0,50.0,46.2,42.0,65,42,25,30.11,29.87,16,3,0,0.00
2013-7-26,88.0,71.9,52.0,52.0,44.7,38.0,77,42,18,30.15,29.95,15,4,0,0.00
2013-7-27,78.0,68.3,56.0,53.0,48.1,41.0,78,50,27,29.98,29.86,14,4,0,0.00
2013-7-28,84.0,67.7,56.0,52.0,46.8,40.0,77,51,22,29.87,29.71,14,2,0,0.00
2013-7-29,81.0,63.6,52.0,53.0,48.0,39.0,85,60,22,30.09,29.85,15,2,0,0.00
2013-7-30,85.0,66.5,52.0,49.0,45.6,36.0,79,51,18,30.18,30.03,16,4,0,0.00
2013-7-31,83.0,67.3,50.0,53.0,47.7,44.0,84,53,25,30.23,30.04,10,2,0,0.00
2013-8-1,92.0,74.0,53.0,50.0,44.3,36.0,72,39,15,30.08,29.68,21,4,0,0.00
2013-8-2,87.0,72.8,56.0,55.0,40.5,18.0,82,39,8,29.87,29.72,14,4,0,0.00
2013-8-3,91.0,73.1,55.0,54.0,43.2,31.0,71,39,12,30.01,29.82,12,2,0,0.00
2013-8-4,91.0,74.5,58.0,55.0,45.7,30.0,75,42,13,29.98,29.80,13,3,0,0.00
2013-8-5,91.0,74.6,61.0,59.0,45.7,22.0,81,43,10,29.92,29.75,21,4,0,0.00
2013-8-6,88.0,72.8,56.0,46.0,39.1,28.0,54,32,12,29.95,29.79,18,5,0,0.00
2013-8-7,86.0,70.9,54.0,52.0,42.4,31.0,71,40,14,29.96,29.76,18,3,0,0.00
2013-8-8,82.0,69.8,58.0,51.0,44.7,32.0,69,43,17,30.01,29.85,15,3,0,0.00
2013-8-9,76.0,65.9,57.0,48.0,45.0,42.0,68,48,31,30.09,29.98,19,4,0,0.00
2013-8-10,84.0,68.0,55.0,53.0,44.2,34.0,77,47,17,30.11,29.97,19,3,0,0.00
2013-8-11,87.0,70.2,54.0,45.0,38.2,29.0,59,34,13,30.09,29.96,19,3,0,0.00
2013-8-12,82.0,68.1,55.0,47.0,40.4,33.0,61,39,17,30.06,30.00,14,2,0,0.00
2013-8-13,79.0,65.7,54.0,46.0,39.3,-99.9,62,41,22,30.14,30.04,23,3,0,0.00
2013-8-14,82.0,66.0,52.0,44.0,34.2,-99.9,69,38,15,30.14,29.96,11,2,0,0.00
2013-8-15,87.0,64.4,54.0,44.0,23.3,-99.9,64,31,11,30.09,29.93,11,3,0,0.00
2013-8-16,92.0,72.3,55.0,46.0,30.1,-99.9,47,27,7,30.04,29.88,7,1,0,0.00
2013-8-17,93.0,75.9,60.0,41.0,27.3,-99.9,31,19,8,29.97,29.78,11,2,0,0.00
2013-8-18,92.0,80.1,66.0,45.0,36.3,29.0,35,22,12,29.89,29.76,22,3,0,0.00
2013-8-19,94.0,70.9,58.0,49.0,28.1,-99.9,66,31,8,29.95,29.78,11,2,0,0.00
2013-8-20,88.0,76.0,67.0,46.0,36.1,-99.9,34,25,17,29.89,29.77,11,2,0,0.00
2013-8-21,82.0,74.2,65.0,49.0,44.6,40.0,54,36,23,30.01,29.82,11,4,0,0.00
2013-8-22,87.0,72.4,61.0,53.0,49.3,45.0,72,46,26,30.06,29.87,9,1,0,0.00
2013-8-23,89.0,71.8,57.0,52.0,47.7,41.0,76,46,20,29.92,29.72,18,3,0,0.00
2013-8-24,85.0,71.6,62.0,51.0,43.7,-99.9,67,40,21,29.90,29.78,8,3,0,0.00
2013-8-25,84.0,72.0,58.0,51.0,43.4,38.0,64,39,21,30.01,29.88,15,3,0,0.00
2013-8-26,82.0,71.8,60.0,52.0,46.7,42.0,64,42,27,29.98,29.89,18,3,0,0.00
2013-8-27,81.0,67.2,60.0,50.0,47.1,45.0,62,50,28,30.01,29.94,4,0,0,0.00
2013-8-28,89.0,82.5,74.0,52.0,45.4,41.0,42,28,20,29.97,29.86,12,3,0,0.00
2013-8-29,89.0,74.3,61.0,49.0,44.7,41.0,53,37,20,30.04,29.92,8,2,0,0.00
2013-8-30,88.0,72.0,56.0,51.0,45.3,38.0,76,43,18,30.06,29.88,11,2,0,0.00
2013-8-31,88.0,71.3,59.0,44.0,38.9,-99.9,55,33,13,30.02,29.87,15,5,0,0.00
2013-9-1,85.0,69.8,52.0,47.0,40.8,28.0,71,38,14,30.07,29.91,11,2,0,0.00
2013-9-2,88.0,71.5,60.0,55.0,47.6,35.0,64,44,26,29.96,29.80,19,3,0,0.00
2013-9-3,88.0,73.6,59.0,56.0,51.5,47.0,76,50,26,30.00,29.89,10,2,0,0.00
2013-9-4,90.0,73.3,58.0,58.0,52.7,45.0,84,54,23,30.08,29.94,9,2,0,0.00
2013-9-5,93.0,75.8,60.0,54.0,47.5,40.0,65,41,19,30.03,29.86,6,1,0,0.00
2013-9-6,85.0,74.3,62.0,53.0,46.4,41.0,65,38,25,29.99,29.83,22,3,0,0.00
2013-9-7,86.0,71.6,58.0,55.0,51.5,47.0,79,53,26,30.02,29.85,11,2,0,0.00
2013-9-8,70.0,62.3,53.0,58.0,52.4,47.0,89,71,54,29.94,29.89,20,3,0,0.00
2013-9-9,74.0,61.7,50.0,52.0,47.2,41.0,90,62,31,30.04,29.91,14,2,0,0.00
2013-9-10,72.0,64.1,56.0,48.0,45.4,42.0,63,51,39,30.12,30.04,6,2,0,0.00
2013-9-11,62.0,57.2,54.0,54.0,49.9,43.0,87,77,53,30.30,30.12,9,2,0,0.00
2013-9-12,57.0,55.5,53.0,55.0,53.3,51.0,95,92,83,30.35,30.18,6,3,0,0.00
2013-9-13,69.0,58.8,54.0,58.0,55.0,53.0,97,88,67,30.18,29.89,4,2,0,0.00
2013-9-14,69.0,58.1,53.0,56.0,50.4,-99.9,95,79,54,30.09,29.90,17,6,0,0.00
2013-9-15,62.0,57.0,54.0,57.0,53.6,51.0,96,88,81,30.17,30.08,18,7,0,0.00
2013-9-16,75.0,61.7,50.0,56.0,52.5,48.0,96,75,42,30.13,29.91,4,0,0,0.00
2013-9-17,78.0,62.2,52.0,56.0,49.9,38.0,88,67,28,29.93,29.65,24,4,0,0.00
2013-9-18,52.0,50.4,49.0,48.0,44.2,29.0,91,81,45,30.02,29.72,14,4,0,0.00
2013-9-19,61.0,51.7,41.0,40.0,33.8,30.0,79,52,33,30.24,30.01,17,5,0,0.00
2013-9-20,70.0,53.6,38.0,41.0,36.5,33.0,87,56,28,30.24,29.98,3,0,0,0.00
2013-9-21,79.0,60.5,42.0,43.0,32.9,-99.9,84,44,13,29.98,29.65,8,2,0,0.00
2013-9-22,70.0,59.9,50.0,43.0,39.1,33.0,66,47,31,29.65,29.54,15,3,0,0.00
2013-9-23,68.0,58.8,50.0,38.0,30.3,24.0,52,35,19,29.99,29.60,27,13,0,0.00
2013-9-24,75.0,58.9,45.0,36.0,29.4,22.0,52,35,14,30.05,29.69,19,3,0,0.00
2013-9-25,65.0,50.9,42.0,41.0,36.1,28.0,90,60,30,29.75,29.46,18,5,0,0.00
2013-9-26,47.0,39.9,31.0,41.0,36.4,29.0,98,88,64,30.11,29.74,13,3,0,0.00
2013-9-27,37.0,32.3,31.0,34.0,30.8,30.0,96,94,87,30.27,30.09,3,0,0,0.00
2013-9-28,56.0,42.3,29.0,40.0,31.8,-99.9,93,69,48,30.37,30.19,10,2,0,0.00
2013-9-29,64.0,50.4,36.0,43.0,36.6,32.0,92,63,33,30.20,29.87,25,4,0,0.00
2013-9-30,68.0,58.6,44.0,42.0,35.9,32.0,73,44,26,29.91,29.71,26,7,0,0.00
2013-10-1,64.0,58.3,51.0,37.0,34.4,32.0,55,41,32,29.91,29.84,7,3,0,0.00
2013-10-2,57.0,48.7,40.0,41.0,36.0,31.0,94,63,42,30.06,29.91,20,6,0,0.00
2013-10-3,41.0,36.8,30.0,39.0,35.1,29.0,96,93,91,30.26,29.91,20,8,0,0.00
2013-10-4,31.0,28.2,24.0,29.0,26.9,23.0,96,95,93,30.70,30.27,10,3,0,0.00
2013-10-5,38.0,29.6,18.0,37.0,27.5,16.0,95,92,80,30.69,30.62,3,0,0,0.00
2013-10-6,56.0,40.7,29.0,41.0,34.0,26.0,93,78,54,30.65,30.38,5,1,0,0.00
2013-10-7,58.0,42.7,30.0,44.0,37.3,28.0,96,83,54,30.37,29.98,5,2,0,0.00
2013-10-8,67.0,48.8,34.0,42.0,35.7,26.0,94,66,25,29.98,29.81,15,4,0,0.00
2013-10-9,51.0,45.5,41.0,40.0,36.9,34.0,85,72,59,30.09,29.96,11,3,0,0.00
2013-10-10,45.0,40.7,35.0,41.0,36.8,32.0,94,86,73,30.05,29.81,7,1,0,0.00
2013-10-11,49.0,41.8,36.0,41.0,34.3,28.0,93,75,52,30.23,29.82,13,5,0,0.00
2013-10-12,48.0,38.4,28.0,35.0,28.2,-99.9,91,70,52,30.32,30.22,5,1,0,0.00
2013-10-13,51.0,39.9,33.0,37.0,33.1,29.0,92,78,55,30.28,30.14,14,3,0,0.00
2013-10-14,39.0,35.2,30.0,35.0,30.7,26.0,93,84,67,30.58,30.18,16,6,0,0.00
2013-10-15,42.0,33.6,28.0,32.0,25.9,22.0,94,75,50,30.62,30.45,7,1,0,0.00
2013-10-16,50.0,35.6,25.0,29.0,25.5,21.0,89,69,38,30.45,30.25,12,1,0,0.00
2013-10-17,41.0,34.9,31.0,32.0,29.3,27.0,95,80,66,30.40,30.25,13,5,0,0.00
2013-10-18,45.0,35.5,29.0,30.0,27.2,23.0,95,74,45,30.52,30.33,7,1,0,0.00
2013-10-19,59.0,44.4,31.0,32.0,25.7,-99.9,77,51,33,30.33,30.05,19,3,0,0.00
2013-10-20,51.0,42.1,35.0,34.0,30.5,26.0,86,64,37,30.28,30.04,19,5,0,0.00
2013-10-21,61.0,42.1,27.0,33.0,28.7,24.0,91,63,31,30.39,30.26,10,2,0,0.00
2013-10-22,62.0,46.9,33.0,37.0,31.4,28.0,86,57,32,30.37,30.19,6,2,0,0.00
2013-10-23,62.0,46.3,35.0,35.0,30.1,26.0,80,55,33,30.32,30.23,6,2,0,0.00
2013-10-24,58.0,44.3,31.0,39.0,33.7,29.0,92,69,42,30.41,30.30,8,3,0,0.00
2013-10-25,65.0,50.1,33.0,38.0,32.3,27.0,78,53,29,30.41,30.29,10,2,0,0.00
2013-10-26,62.0,45.8,31.0,37.0,29.5,-99.9,84,57,30,30.45,30.23,6,2,0,0.00
2013-10-27,66.0,51.3,40.0,28.0,24.6,21.0,55,37,20,30.22,29.82,21,4,0,0.00
2013-10-28,46.0,32.0,26.0,32.0,26.3,-99.9,95,85,45,30.26,29.92,19,7,0,0.00
2013-10-29,29.0,25.6,20.0,27.0,24.2,18.0,94,94,91,30.30,30.21,7,1,0,0.00
2013-10-30,30.0,24.4,20.0,29.0,23.2,18.0,95,94,93,30.23,30.16,8,0,0,0.00
2013-10-31,48.0,31.2,20.0,39.0,26.4,18.0,96,84,53,30.24,30.08,28,6,0,0.00
2013-11-1,52.0,40.8,32.0,30.0,26.6,23.0,79,58,33,30.40,30.19,11,5,0,0.00
2013-11-2,53.0,39.4,24.0,34.0,25.4,-99.9,88,61,32,30.33,29.85,6,2,0,0.00
2013-11-3,46.0,35.6,25.0,27.0,18.9,8.0,84,53,28,30.14,29.76,18,7,0,0.00
2013-11-4,37.0,28.6,23.0,16.0,12.2,8.0,72,51,30,30.32,30.14,10,2,0,0.00
2013-11-5,37.0,27.8,17.0,13.0,9.8,4.0,75,48,28,30.45,30.33,22,7,0,0.00
2013-11-6,48.0,36.5,27.0,21.0,17.0,12.0,61,45,29,30.53,30.40,24,12,0,0.00
2013-11-7,50.0,37.1,24.0,32.0,24.7,18.0,78,61,47,30.54,30.02,8,2,0,0.00
2013-11-8,55.0,45.9,36.0,30.0,24.0,18.0,66,44,23,30.12,29.92,18,9,0,0.00
2013-11-9,52.0,39.4,29.0,27.0,22.2,-99.9,79,53,34,30.38,30.12,7,2,0,0.00
2013-11-10,59.0,42.1,25.0,34.0,27.1,20.0,86,58,33,30.43,30.33,6,2,0,0.00
2013-11-11,50.0,41.0,27.0,30.0,27.4,24.0,88,60,45,30.72,30.32,16,7,0,0.00
2013-11-12,54.0,36.3,22.0,33.0,27.6,20.0,93,73,42,30.79,30.57,7,1,0,0.00
2013-11-13,47.0,37.3,28.0,33.0,29.0,25.0,91,73,51,30.57,30.28,18,4,0,0.00
2013-11-14,51.0,39.0,31.0,30.0,25.2,22.0,79,59,34,30.34,29.87,18,3,0,0.00
2013-11-15,49.0,35.8,28.0,25.0,18.2,11.0,87,52,28,29.88,29.62,27,9,0,0.00
2013-11-16,44.0,32.9,27.0,19.0,13.6,-99.9,66,47,28,29.72,29.48,23,6,0,0.00
2013-11-17,45.0,31.8,21.0,15.0,10.2,8.0,58,42,23,30.30,29.76,22,4,0,0.00
2013-11-18,54.0,38.1,23.0,19.0,14.9,11.0,62,41,22,30.36,30.09,5,1,0,0.00
2013-11-19,52.0,39.1,27.0,28.0,24.3,17.0,75,56,38,30.09,29.86,16,6,0,0.00
2013-11-20,53.0,35.0,14.0,27.0,21.6,10.0,86,60,34,30.39,29.85,32,6,0,0.00
2013-11-21,23.0,13.8,6.0,14.0,9.4,2.0,88,82,64,31.05,30.40,7,1,0,0.00
2013-11-22,26.0,8.2,0.0,14.0,3.6,-4.0,88,81,61,31.15,31.03,3,0,0,0.00
2013-11-23,29.0,13.9,3.0,16.0,6.6,-99.9,88,77,53,31.14,30.78,5,1,0,0.00
2013-11-24,34.0,16.3,5.0,20.0,9.8,2.0,89,77,52,30.77,30.52,5,0,0,0.00
2013-11-25,42.0,26.4,13.0,25.0,17.7,9.0,87,71,48,30.72,30.60,6,2,0,0.00
2013-11-26,45.0,28.8,19.0,26.0,20.0,14.0,83,70,45,30.73,30.52,6,2,0,0.00
2013-11-27,39.0,27.9,20.0,27.0,21.9,16.0,90,78,60,30.52,30.37,5,2,0,0.00
2013-11-28,43.0,30.1,20.0,27.0,23.1,17.0,92,76,52,30.48,30.37,6,2,0,0.00
2013-11-30,45.0,32.6,24.0,26.0,21.1,-99.9,84,66,41,30.45,30.33,6,2,0,0.00
2013-12-1,49.0,38.1,32.0,28.0,25.3,22.0,68,60,38,30.37,29.99,10,3,0,0.00
2013-12-2,51.0,41.7,30.0,28.0,25.2,22.0,80,53,33,29.98,29.60,29,10,0,0.00
2013-12-3,30.0,12.2,4.0,24.0,7.0,-4.0,88,79,70,30.35,29.61,23,18,0,0.00
2013-12-4,8.0,1.2,-6.0,-1.0,-6.2,-11.0,81,70,55,30.68,30.34,15,6,0,0.00
2013-12-5,7.0,-3.3,-11.0,-4.0,-9.7,-16.0,82,74,57,30.79,30.66,5,0,0,0.00
2013-12-6,5.0,-4.5,-11.0,-3.0,-9.9,-16.0,92,77,66,30.86,30.78,3,0,0,0.00
2013-12-7,2.0,-6.0,-13.0,-6.0,-12.4,-99.9,82,77,66,30.85,30.54,3,0,0,0.00
2013-12-8,4.0,-2.5,-12.0,-3.0,-7.6,-17.0,82,78,71,30.75,30.52,4,1,0,0.00
2013-12-9,23.0,5.5,-6.0,5.0,-3.9,-12.0,83,66,45,30.74,30.61,14,2,0,0.00
2013-12-10,31.0,20.9,6.0,11.0,7.8,-1.0,71,57,43,30.63,30.36,26,9,0,0.00
2013-12-11,26.0,11.8,1.0,11.0,4.0,-4.0,87,71,51,30.80,30.63,4,1,0,0.00
2013-12-12,34.0,16.1,5.0,17.0,8.3,0.0,82,72,48,30.79,30.41,6,2,0,0.00
2013-12-13,32.0,19.5,13.0,18.0,12.4,8.0,85,74,51,30.63,30.35,8,2,0,0.00
2013-12-14,40.0,23.5,6.0,20.0,12.1,-99.9,87,65,42,30.68,30.53,23,2,0,0.00
2013-12-15,47.0,36.0,25.0,22.0,17.1,14.0,64,47,30,30.53,30.28,24,8,0,0.00
2013-12-16,53.0,45.2,33.0,17.0,12.4,9.0,50,28,18,30.37,30.24,35,17,0,0.00
2013-12-17,56.0,42.8,31.0,20.0,17.8,14.0,48,37,21,30.42,30.15,6,2,0,0.00
2013-12-18,56.0,41.6,29.0,23.0,16.8,10.0,59,38,21,30.15,29.78,7,3,0,0.00
2013-12-19,32.0,18.5,7.0,22.0,13.1,3.0,88,80,58,30.30,29.72,21,5,0,0.00
2013-12-20,16.0,6.9,-1.0,11.0,3.4,-5.0,87,85,78,30.32,30.11,3,0,0,0.00
2013-12-21,25.0,14.4,6.0,16.0,8.1,-99.9,88,79,64,30.41,30.07,7,2,0,0.00
2013-12-22,25.0,13.9,5.0,16.0,9.1,2.0,89,81,69,30.69,30.40,12,2,0,0.00
2013-12-23,29.0,18.0,2.0,22.0,12.2,-1.0,89,78,64,30.70,30.43,7,2,0,0.00
2013-12-24,40.0,30.0,22.0,26.0,17.2,10.0,92,60,42,30.60,30.33,25,8,0,0.00
2013-12-25,32.0,19.2,7.0,16.0,10.0,2.0,85,68,48,30.74,30.61,8,2,0,0.00
2013-12-26,42.0,25.3,14.0,23.0,14.1,7.0,76,63,39,30.72,30.59,8,2,0,0.00
2013-12-27,41.0,25.7,14.0,25.0,17.8,11.0,87,73,50,30.67,30.37,9,2,0,0.00
2013-12-31,44.0,34.8,24.0,30.0,23.0,14.0,87,63,48,30.40,30.13,17,5,0,0.00
2014-1-1,32.0,27.6,14.0,28.0,22.0,11.0,93,80,63,30.55,30.22,18,5,0,0.00
2014-1-2,26.0,17.1,8.0,18.0,12.2,5.0,89,82,67,30.62,30.43,7,2,0,0.00